TimePDT,TemperatureF,Dew PointF,Humidity,Sea Level PressureIn,VisibilityMPH,Wind Direction,Wind SpeedMPH,Gust SpeedMPH,PrecipitationIn,Events,Conditions,WindDirDegrees,DateUTC
12:15 AM,50.0,48.2,94,30.09,10.0,East,3.5,-,N/A,,Overcast,100,2013-03-20 07:15:00
12:35 AM,50.0,48.2,94,30.09,10.0,Calm,Calm,-,N/A,,Overcast,0,2013-03-20 07:35:00
12:55 AM,50.0,48.2,94,30.12,5.0,NNW,3.5,-,N/A,,Overcast,330,2013-03-20 07:55:00
1:15 AM,50.0,46.4,87,30.12,5.0,Calm,Calm,-,0.01,Rain,Light Rain,0,2013-03-20 08:15:00
1:35 AM,50.0,48.2,94,30.12,8.0,ESE,3.5,-,0.02,Rain,Light Rain,120,2013-03-20 08:35:00
1:55 AM,50.0,48.2,94,30.13,10.0,NNE,4.6,-,0.02,,Overcast,20,2013-03-20 08:55:00
2:15 AM,50.0,48.2,94,30.12,10.0,East,5.8,-,N/A,,Overcast,90,2013-03-20 09:15:00
2:35 AM,50.0,48.2,94,30.12,10.0,North,3.5,-,N/A,,Overcast,10,2013-03-20 09:35:00
2:55 AM,50.0,48.2,94,30.12,10.0,ENE,4.6,-,N/A,,Overcast,70,2013-03-20 09:55:00
3:15 AM,50.0,48.2,94,30.12,10.0,Calm,Calm,-,N/A,,Overcast,0,2013-03-20 10:15:00
3:35 AM,50.0,48.2,94,30.11,8.0,East,5.8,-,N/A,Rain,Light Rain,80,2013-03-20 10:35:00
3:55 AM,50.0,48.2,94,30.11,10.0,ENE,3.5,-,N/A,,Overcast,60,2013-03-20 10:55:00
4:15 AM,50.0,48.2,94,30.11,10.0,Calm,Calm,-,N/A,,Overcast,0,2013-03-20 11:15:00
4:35 AM,50.0,48.2,94,30.11,10.0,Calm,Calm,-,N/A,,Overcast,0,2013-03-20 11:35:00
5:15 AM,50.0,48.2,94,30.09,10.0,ESE,3.5,-,N/A,,Overcast,120,2013-03-20 12:15:00
5:35 AM,50.0,48.2,94,30.09,10.0,South,3.5,-,N/A,,Overcast,170,2013-03-20 12:35:00
5:55 AM,50.0,48.2,94,30.08,8.0,SSW,4.6,-,N/A,,Overcast,210,2013-03-20 12:55:00
6:15 AM,50.0,50.0,100,30.09,8.0,SSE,5.8,-,N/A,,Overcast,160,2013-03-20 13:15:00
6:35 AM,51.8,50.0,94,30.09,9.0,Calm,Calm,-,N/A,,Overcast,0,2013-03-20 13:35:00
6:55 AM,51.8,48.2,88,30.10,10.0,SSE,4.6,-,N/A,,Overcast,160,2013-03-20 13:55:00
7:15 AM,51.8,48.2,88,30.11,10.0,SSE,5.8,-,N/A,,Overcast,160,2013-03-20 14:15:00
7:35 AM,53.6,48.2,82,30.10,10.0,SSE,9.2,-,N/A,,Overcast,150,2013-03-20 14:35:00
7:55 AM,53.6,46.4,77,30.10,10.0,SSE,10.4,-,N/A,,Overcast,150,2013-03-20 14:55:00
8:15 AM,53.6,44.6,72,30.10,10.0,SSE,8.1,-,N/A,,Overcast,150,2013-03-20 15:15:00
8:55 AM,55.4,41.0,58,30.11,10.0,SE,6.9,-,N/A,,Overcast,140,2013-03-20 15:55:00
9:15 AM,55.4,41.0,58,30.12,10.0,South,6.9,-,N/A,,Overcast,170,2013-03-20 16:15:00
9:35 AM,55.4,44.6,67,30.12,10.0,SSE,6.9,-,N/A,,Overcast,160,2013-03-20 16:35:00
9:55 AM,55.4,44.6,67,30.12,10.0,SSE,9.2,-,N/A,,Overcast,160,2013-03-20 16:55:00
10:15 AM,55.4,44.6,67,30.12,10.0,South,8.1,-,N/A,,Overcast,170,2013-03-20 17:15:00
10:35 AM,55.4,46.4,72,30.12,9.0,South,9.2,-,N/A,,Overcast,180,2013-03-20 17:35:00
10:55 AM,53.6,48.2,82,30.13,10.0,South,4.6,-,N/A,,Overcast,180,2013-03-20 17:55:00
11:15 AM,53.6,50.0,88,30.13,8.0,South,8.1,-,N/A,,Overcast,190,2013-03-20 18:15:00
11:35 AM,53.6,50.0,88,30.13,8.0,South,9.2,-,N/A,,Overcast,190,2013-03-20 18:35:00
11:55 AM,53.6,50.0,88,30.13,7.0,South,9.2,17.3,N/A,,Overcast,180,2013-03-20 18:55:00
12:15 PM,53.6,50.0,88,30.14,8.0,South,10.4,-,N/A,,Overcast,190,2013-03-20 19:15:00
12:35 PM,53.6,50.0,88,30.14,9.0,South,11.5,18.4,N/A,,Overcast,170,2013-03-20 19:35:00
12:55 PM,53.6,48.2,82,30.14,9.0,SSE,8.1,-,N/A,,Overcast,150,2013-03-20 19:55:00
1:15 PM,53.6,48.2,82,30.15,5.0,SSE,5.8,-,N/A,,Overcast,150,2013-03-20 20:15:00
1:35 PM,51.8,48.2,88,30.14,0.8,SSE,6.9,-,N/A,,Overcast,160,2013-03-20 20:35:00
1:55 PM,50.0,48.2,94,30.14,0.5,SSE,8.1,-,N/A,Fog,Fog,150,2013-03-20 20:55:00
2:15 PM,50.0,50.0,100,30.14,0.5,SSE,9.2,-,N/A,Fog,Fog,150,2013-03-20 21:15:00
2:35 PM,50.0,50.0,100,30.13,1.0,SSE,8.1,-,N/A,,Overcast,150,2013-03-20 21:35:00
2:55 PM,51.8,50.0,94,30.13,1.2,South,9.2,-,N/A,,Overcast,180,2013-03-20 21:55:00
3:15 PM,53.6,51.8,94,30.13,0.8,South,5.8,-,0.01,,Overcast,190,2013-03-20 22:15:00
3:35 PM,53.6,53.6,100,30.13,0.8,South,5.8,-,0.02,Rain,Light Rain,180,2013-03-20 22:35:00
3:55 PM,53.6,51.8,94,30.13,1.0,SSE,5.8,-,0.02,,Overcast,160,2013-03-20 22:55:00
4:15 PM,53.6,51.8,94,30.13,0.5,SSE,4.6,-,0.01,Rain,Light Rain,160,2013-03-20 23:15:00
4:35 PM,53.6,53.6,100,30.14,0.5,SSE,4.6,-,0.02,Rain,Light Rain,160,2013-03-20 23:35:00
4:55 PM,53.6,51.8,94,30.13,0.8,South,3.5,-,0.03,,Overcast,170,2013-03-20 23:55:00
5:15 PM,53.6,53.6,100,30.13,0.5,South,4.6,-,N/A,Fog,Fog,180,2013-03-21 00:15:00
5:35 PM,53.6,53.6,100,30.12,0.5,SSW,4.6,-,N/A,Fog,Fog,200,2013-03-21 00:35:00
5:55 PM,53.6,51.8,94,30.12,0.5,Calm,Calm,-,0.01,Fog,Fog,0,2013-03-21 00:55:00
6:15 PM,51.8,51.8,100,30.13,1.5,SSW,4.6,-,N/A,,Overcast,210,2013-03-21 01:15:00
6:35 PM,51.8,51.8,100,30.13,2.5,WSW,4.6,-,N/A,,Overcast,240,2013-03-21 01:35:00
6:55 PM,51.8,51.8,100,30.14,1.2,West,3.5,-,N/A,,Overcast,260,2013-03-21 01:55:00
7:15 PM,51.8,51.8,100,30.14,0.2,West,4.6,-,N/A,Fog,Fog,260,2013-03-21 02:15:00
7:35 PM,51.8,51.8,100,30.14,0.2,Calm,Calm,-,N/A,Fog,Fog,0,2013-03-21 02:35:00
7:55 PM,51.8,51.8,100,30.14,0.5,NW,3.5,-,N/A,Fog,Fog,310,2013-03-21 02:55:00
8:15 PM,51.8,51.8,100,30.15,4.0,NNW,4.6,-,N/A,,Overcast,340,2013-03-21 03:15:00
8:35 PM,51.8,51.8,100,30.15,5.0,North,3.5,-,N/A,,Overcast,350,2013-03-21 03:35:00
8:55 PM,51.8,51.8,100,30.16,4.0,NNW,4.6,-,N/A,,Overcast,340,2013-03-21 03:55:00
9:15 PM,51.8,51.8,100,30.16,5.0,North,4.6,-,N/A,,Overcast,360,2013-03-21 04:15:00
9:35 PM,51.8,51.8,100,30.17,7.0,North,8.1,-,N/A,,Overcast,350,2013-03-21 04:35:00
9:55 PM,51.8,51.8,100,30.17,1.2,North,5.8,-,N/A,,Overcast,350,2013-03-21 04:55:00
10:35 PM,50.0,50.0,100,30.17,6.0,NNW,12.7,-,N/A,,Overcast,340,2013-03-21 05:35:00
11:15 PM,50.0,50.0,100,30.17,8.0,North,10.4,-,N/A,,Overcast,350,2013-03-21 06:15:00
11:35 PM,50.0,50.0,100,30.17,9.0,North,8.1,-,N/A,,Overcast,360,2013-03-21 06:35:00
11:55 PM,50.0,48.2,94,30.17,9.0,North,9.2,-,N/A,,Overcast,350,2013-03-21 06:55:00